Time,TemperatureF,DewpointF,PressureIn,WindDirection,WindDirectionDegrees,WindSpeedMPH,WindSpeedGustMPH,Humidity,HourlyPrecipIn,Conditions,Clouds,dailyrainin,SoftwareType,DateUTC
2013-03-07 00:00:00,13.5,9.8,30.33,NW,307,0.0,0.0,85,0.00,RA,,0.00,WeatherDisplay:10.37,2013-03-07 06:00:00,
2013-03-07 00:05:00,13.3,9.6,30.33,NW,307,0.0,0.0,85,0.00,RA,,0.00,WeatherDisplay:10.37,2013-03-07 06:05:00,
2013-03-07 00:10:00,13.3,9.6,30.33,NW,307,0.0,0.0,85,0.00,CLR,,0.00,WeatherDisplay:10.37,2013-03-07 06:10:00,
2013-03-07 00:15:00,12.9,9.2,30.32,NW,307,0.0,0.0,85,0.00,CLR,,0.00,WeatherDisplay:10.37,2013-03-07 06:15:00,
2013-03-07 00:20:00,12.9,9.5,30.32,NW,307,0.0,0.0,86,0.00,CLR,,0.00,WeatherDisplay:10.37,2013-03-07 06:20:00,
2013-03-07 00:25:00,13.5,10.1,30.32,NW,307,0.0,0.0,86,0.00,CLR,,0.00,WeatherDisplay:10.37,2013-03-07 06:25:00,
2013-03-07 00:30:00,13.8,10.4,30.33,NW,307,0.0,0.0,86,0.00,CLR,,0.00,WeatherDisplay:10.37,2013-03-07 06:30:00,
2013-03-07 00:35:00,13.8,10.4,30.33,NW,307,0.0,0.0,86,0.00,CLR,,0.00,WeatherDisplay:10.37,2013-03-07 06:35:00,
2013-03-07 00:40:00,13.5,10.1,30.33,NW,307,0.0,0.0,86,0.00,CLR,,0.00,WeatherDisplay:10.37,2013-03-07 06:40:00,
2013-03-07 00:45:00,13.1,9.7,30.33,NW,307,0.0,0.0,86,0.00,CLR,,0.00,WeatherDisplay:10.37,2013-03-07 06:45:00,
2013-03-07 00:50:00,13.1,9.7,30.33,NW,307,0.0,0.0,86,0.00,CLR,,0.00,WeatherDisplay:10.37,2013-03-07 06:50:00,
2013-03-07 00:55:00,12.9,9.5,30.33,NW,307,0.0,0.0,86,0.00,CLR,,0.00,WeatherDisplay:10.37,2013-03-07 06:55:00,
2013-03-07 01:00:00,12.9,9.5,30.33,NW,307,0.0,0.0,86,0.00,CLR,,0.00,WeatherDisplay:10.37,2013-03-07 07:00:00,
2013-03-07 01:05:00,12.6,9.2,30.33,NW,307,0.0,0.0,86,0.00,CLR,,0.00,WeatherDisplay:10.37,2013-03-07 07:05:00,
2013-03-07 01:10:00,12.4,9.0,30.33,NW,307,0.0,0.0,86,0.00,CLR,,0.00,WeatherDisplay:10.37,2013-03-07 07:10:00,
2013-03-07 01:15:00,12.4,9.0,30.33,NW,307,0.0,0.0,86,0.00,CLR,,0.00,WeatherDisplay:10.37,2013-03-07 07:15:00,
2013-03-07 01:20:00,12.6,9.2,30.33,NW,307,0.0,0.0,86,0.00,CLR,,0.00,WeatherDisplay:10.37,2013-03-07 07:20:00,
2013-03-07 01:25:00,12.6,9.2,30.33,NW,307,0.0,0.0,86,0.00,CLR,,0.00,WeatherDisplay:10.37,2013-03-07 07:25:00,
2013-03-07 01:30:00,12.4,8.7,30.33,NW,307,0.0,0.0,85,0.00,CLR,,0.00,WeatherDisplay:10.37,2013-03-07 07:30:00,
2013-03-07 01:35:00,12.3,8.7,30.33,NW,307,0.0,0.0,85,0.00,CLR,,0.00,WeatherDisplay:10.37,2013-03-07 07:35:00,
2013-03-07 01:40:00,12.3,8.7,30.33,NW,307,0.0,0.0,85,0.00,CLR,,0.00,WeatherDisplay:10.37,2013-03-07 07:40:00,
2013-03-07 01:45:00,12.1,8.5,30.33,NW,307,0.0,0.0,85,0.00,CLR,,0.00,WeatherDisplay:10.37,2013-03-07 07:45:00,
2013-03-07 01:50:00,11.7,8.1,30.33,NW,307,0.0,0.0,85,0.00,CLR,,0.00,WeatherDisplay:10.37,2013-03-07 07:50:00,
2013-03-07 01:55:00,11.6,8.0,30.33,NW,307,0.0,0.0,85,0.00,CLR,,0.00,WeatherDisplay:10.37,2013-03-07 07:55:00,
2013-03-07 02:00:00,11.2,7.6,30.32,NW,307,0.0,0.0,85,0.00,CLR,,0.00,WeatherDisplay:10.37,2013-03-07 08:00:00,
2013-03-07 02:05:00,10.9,7.0,30.32,NW,307,0.0,0.0,84,0.00,CLR,,0.00,WeatherDisplay:10.37,2013-03-07 08:05:00,
2013-03-07 02:10:00,10.7,6.8,30.32,NW,307,0.0,0.0,84,0.00,CLR,,0.00,WeatherDisplay:10.37,2013-03-07 08:10:00,
2013-03-07 02:15:00,10.5,6.6,30.33,NW,307,0.0,0.0,84,0.00,CLR,,0.00,WeatherDisplay:10.37,2013-03-07 08:15:00,
2013-03-07 02:20:00,10.2,6.3,30.33,NW,307,0.0,0.0,84,0.00,CLR,,0.00,WeatherDisplay:10.37,2013-03-07 08:20:00,
2013-03-07 02:25:00,9.9,6.0,30.33,NW,307,0.0,0.0,84,0.00,CLR,,0.00,WeatherDisplay:10.37,2013-03-07 08:25:00,
2013-03-07 02:30:00,9.7,5.8,30.33,NW,307,0.0,0.0,84,0.00,CLR,,0.00,WeatherDisplay:10.37,2013-03-07 08:30:00,
2013-03-07 02:35:00,9.5,5.6,30.33,NW,307,0.0,0.0,84,0.00,CLR,,0.00,WeatherDisplay:10.37,2013-03-07 08:35:00,
2013-03-07 02:40:00,9.5,5.6,30.33,NW,307,0.0,0.0,84,0.00,CLR,,0.00,WeatherDisplay:10.37,2013-03-07 08:40:00,
2013-03-07 02:45:00,9.5,5.6,30.33,NW,307,0.0,0.0,84,0.00,CLR,,0.00,WeatherDisplay:10.37,2013-03-07 08:45:00,
2013-03-07 02:50:00,9.5,5.6,30.33,NW,307,0.0,0.0,84,0.00,CLR,,0.00,WeatherDisplay:10.37,2013-03-07 08:50:00,
2013-03-07 02:55:00,9.5,5.9,30.33,NW,307,0.0,0.0,85,0.00,CLR,,0.00,WeatherDisplay:10.37,2013-03-07 08:55:00,
2013-03-07 03:00:00,9.5,5.6,30.33,NW,307,0.0,0.0,84,0.00,SCT,,0.00,WeatherDisplay:10.37,2013-03-07 09:00:00,
2013-03-07 03:06:00,9.5,5.6,30.33,NW,307,0.0,0.0,84,0.00,SCT,,0.00,WeatherDisplay:10.37,2013-03-07 09:06:00,
2013-03-07 03:11:00,9.3,5.4,30.33,NW,307,0.0,0.0,84,0.00,SCT,,0.00,WeatherDisplay:10.37,2013-03-07 09:11:00,
2013-03-07 03:16:00,9.3,5.4,30.33,NW,307,0.0,0.0,84,0.00,SCT,,0.00,WeatherDisplay:10.37,2013-03-07 09:16:00,
2013-03-07 03:21:00,9.2,5.3,30.33,NW,307,0.0,0.0,84,0.00,SCT,,0.00,WeatherDisplay:10.37,2013-03-07 09:21:00,
2013-03-07 03:26:00,9.0,5.1,30.33,NW,307,0.0,0.0,84,0.00,SCT,,0.00,WeatherDisplay:10.37,2013-03-07 09:26:00,
2013-03-07 03:31:00,9.3,5.7,30.32,NW,307,0.0,0.0,85,0.00,BKN,,0.00,WeatherDisplay:10.37,2013-03-07 09:31:00,
2013-03-07 03:36:00,9.5,5.6,30.32,NW,307,0.0,0.0,84,0.00,BKN,,0.00,WeatherDisplay:10.37,2013-03-07 09:36:00,
2013-03-07 03:41:00,9.5,5.6,30.32,NW,307,0.0,0.0,84,0.00,BKN,,0.00,WeatherDisplay:10.37,2013-03-07 09:41:00,
2013-03-07 03:47:00,9.2,5.3,30.32,NW,307,0.0,0.0,84,0.00,BKN,,0.00,WeatherDisplay:10.37,2013-03-07 09:47:00,
2013-03-07 03:52:00,9.0,5.1,30.32,NW,307,0.0,0.0,84,0.00,BKN,,0.00,WeatherDisplay:10.37,2013-03-07 09:52:00,
2013-03-07 03:57:00,8.8,5.0,30.32,NW,307,0.0,0.0,84,0.00,BKN,,0.00,WeatherDisplay:10.37,2013-03-07 09:57:00,
2013-03-07 04:02:00,8.8,5.0,30.32,NW,307,0.0,0.0,84,0.00,OVC,,0.00,WeatherDisplay:10.37,2013-03-07 10:02:00,
2013-03-07 04:07:00,8.8,5.0,30.32,NW,307,0.0,0.0,84,0.00,OVC,,0.00,WeatherDisplay:10.37,2013-03-07 10:07:00,
2013-03-07 04:12:00,8.6,4.8,30.32,NW,307,0.0,0.0,84,0.00,OVC,,0.00,WeatherDisplay:10.37,2013-03-07 10:12:00,
2013-03-07 04:17:00,8.6,4.8,30.32,NW,307,0.0,0.0,84,0.00,OVC,,0.00,WeatherDisplay:10.37,2013-03-07 10:17:00,
2013-03-07 04:22:00,8.6,4.8,30.32,NW,307,0.0,0.0,84,0.00,OVC,,0.00,WeatherDisplay:10.37,2013-03-07 10:22:00,
2013-03-07 04:28:00,8.4,4.6,30.32,NW,307,0.0,0.0,84,0.00,OVC,,0.00,WeatherDisplay:10.37,2013-03-07 10:28:00,
2013-03-07 04:33:00,8.3,4.5,30.32,NW,307,0.0,0.0,84,0.00,OVC,,0.00,WeatherDisplay:10.37,2013-03-07 10:33:00,
2013-03-07 04:38:00,8.3,4.5,30.32,NW,307,0.0,0.0,84,0.00,OVC,,0.00,WeatherDisplay:10.37,2013-03-07 10:38:00,
2013-03-07 04:43:00,8.3,4.5,30.32,NW,307,0.0,0.0,84,0.00,OVC,,0.00,WeatherDisplay:10.37,2013-03-07 10:43:00,
2013-03-07 04:48:00,8.1,4.3,30.33,NW,307,0.0,0.0,84,0.00,OVC,,0.00,WeatherDisplay:10.37,2013-03-07 10:48:00,
2013-03-07 04:53:00,8.3,4.5,30.33,NW,307,0.0,0.0,84,0.00,OVC,,0.00,WeatherDisplay:10.37,2013-03-07 10:53:00,
2013-03-07 04:58:00,8.3,4.5,30.33,NW,307,0.0,0.0,84,0.00,OVC,,0.00,WeatherDisplay:10.37,2013-03-07 10:58:00,
2013-03-07 05:03:00,8.3,4.5,30.33,NW,307,0.0,0.0,84,0.00,OVC,,0.00,WeatherDisplay:10.37,2013-03-07 11:03:00,
2013-03-07 05:08:00,8.3,4.5,30.33,NW,307,0.0,0.0,84,0.00,OVC,,0.00,WeatherDisplay:10.37,2013-03-07 11:08:00,
2013-03-07 05:13:00,8.1,4.3,30.33,NW,307,0.0,0.0,84,0.00,OVC,,0.00,WeatherDisplay:10.37,2013-03-07 11:13:00,
2013-03-07 05:18:00,7.7,3.6,30.33,NW,307,0.0,0.0,83,0.00,OVC,,0.00,WeatherDisplay:10.37,2013-03-07 11:18:00,
2013-03-07 05:23:00,7.6,3.5,30.33,NW,307,0.0,0.0,83,0.00,OVC,,0.00,WeatherDisplay:10.37,2013-03-07 11:23:00,
2013-03-07 05:28:00,7.4,3.3,30.33,NW,307,0.0,0.0,83,0.00,OVC,,0.00,WeatherDisplay:10.37,2013-03-07 11:28:00,
2013-03-07 05:33:00,7.2,3.1,30.33,NW,307,0.0,0.0,83,0.00,OVC,,0.00,WeatherDisplay:10.37,2013-03-07 11:33:00,
2013-03-07 05:38:00,7.0,2.9,30.33,NW,307,0.0,0.0,83,0.00,OVC,,0.00,WeatherDisplay:10.37,2013-03-07 11:38:00,
2013-03-07 05:43:00,7.0,2.9,30.33,NW,307,0.0,0.0,83,0.00,OVC,,0.00,WeatherDisplay:10.37,2013-03-07 11:43:00,
2013-03-07 05:48:00,7.0,3.2,30.33,NW,307,0.0,0.0,84,0.00,OVC,,0.00,WeatherDisplay:10.37,2013-03-07 11:48:00,
2013-03-07 05:53:00,7.0,3.2,30.33,NW,307,0.0,0.0,84,0.00,OVC,,0.00,WeatherDisplay:10.37,2013-03-07 11:53:00,
2013-03-07 05:58:00,7.0,2.9,30.33,NW,307,0.0,0.0,83,0.00,OVC,,0.00,WeatherDisplay:10.37,2013-03-07 11:58:00,
2013-03-07 06:03:00,7.0,2.9,30.33,NW,307,0.0,0.0,83,0.00,OVC,,0.00,WeatherDisplay:10.37,2013-03-07 12:03:00,
2013-03-07 06:08:00,6.9,2.8,30.33,NW,307,0.0,0.0,83,0.00,OVC,,0.00,WeatherDisplay:10.37,2013-03-07 12:08:00,
2013-03-07 06:13:00,6.7,2.6,30.33,NW,307,0.0,0.0,83,0.00,OVC,,0.00,WeatherDisplay:10.37,2013-03-07 12:13:00,
2013-03-07 06:18:00,6.7,2.6,30.33,NW,307,1.0,1.0,83,0.00,OVC,,0.00,WeatherDisplay:10.37,2013-03-07 12:18:00,
2013-03-07 06:23:00,6.7,2.9,30.33,NW,307,0.0,0.0,84,0.00,OVC,,0.00,WeatherDisplay:10.37,2013-03-07 12:23:00,
2013-03-07 06:28:00,6.7,2.9,30.33,NW,307,2.0,2.0,84,0.00,OVC,,0.00,WeatherDisplay:10.37,2013-03-07 12:28:00,
2013-03-07 06:33:00,6.7,2.9,30.33,NW,307,2.3,2.3,84,0.00,OVC,,0.00,WeatherDisplay:10.37,2013-03-07 12:33:00,
2013-03-07 06:38:00,6.7,2.9,30.33,NW,307,0.0,0.0,84,0.00,OVC,,0.00,WeatherDisplay:10.37,2013-03-07 12:38:00,
2013-03-07 06:43:00,6.7,2.9,30.33,NW,307,0.0,0.0,84,0.00,OVC,,0.00,WeatherDisplay:10.37,2013-03-07 12:43:00,
2013-03-07 06:48:00,6.7,2.9,30.34,NW,307,0.0,0.0,84,0.00,OVC,,0.00,WeatherDisplay:10.37,2013-03-07 12:48:00,
2013-03-07 06:53:00,6.7,2.9,30.34,NW,307,1.0,1.0,84,0.00,OVC,,0.00,WeatherDisplay:10.37,2013-03-07 12:53:00,
2013-03-07 06:58:00,6.5,2.7,30.34,NW,307,2.3,2.3,84,0.00,OVC,,0.00,WeatherDisplay:10.37,2013-03-07 12:58:00,
2013-03-07 07:03:00,6.5,2.7,30.34,NW,307,0.0,0.0,84,0.00,OVC,,0.00,WeatherDisplay:10.37,2013-03-07 13:03:00,
2013-03-07 07:08:00,6.5,2.7,30.34,NW,307,0.0,0.0,84,0.00,OVC,,0.00,WeatherDisplay:10.37,2013-03-07 13:08:00,
2013-03-07 07:13:00,6.7,2.9,30.34,NW,307,0.0,0.0,84,0.00,OVC,,0.00,WeatherDisplay:10.37,2013-03-07 13:13:00,
2013-03-07 07:18:00,6.7,2.6,30.35,NW,307,0.0,0.0,83,0.00,OVC,,0.00,WeatherDisplay:10.37,2013-03-07 13:18:00,
2013-03-07 07:23:00,6.7,2.6,30.35,NW,307,0.0,0.3,83,0.00,OVC,,0.00,WeatherDisplay:10.37,2013-03-07 13:23:00,
2013-03-07 07:28:00,6.5,2.4,30.35,NW,307,2.3,2.3,83,0.00,OVC,,0.00,WeatherDisplay:10.37,2013-03-07 13:28:00,
2013-03-07 07:33:00,6.5,2.4,30.33,NW,307,1.1,1.1,83,0.00,OVC,,0.00,WeatherDisplay:10.37,2013-03-07 13:33:00,
2013-03-07 07:38:00,6.3,2.2,30.33,NW,307,2.3,2.3,83,0.00,OVC,,0.00,WeatherDisplay:10.37,2013-03-07 13:38:00,
2013-03-07 07:43:00,6.5,2.4,30.33,NW,307,2.3,2.3,83,0.00,OVC,,0.00,WeatherDisplay:10.37,2013-03-07 13:43:00,
2013-03-07 07:48:00,6.5,2.4,30.33,NW,307,2.3,2.3,83,0.00,-SN,,0.00,WeatherDisplay:10.37,2013-03-07 13:48:00,
2013-03-07 07:53:00,6.7,2.6,30.33,NW,307,0.0,1.0,83,0.00,OVC,,0.00,WeatherDisplay:10.37,2013-03-07 13:53:00,
2013-03-07 07:58:00,6.9,2.8,30.33,NW,307,1.1,1.1,83,0.00,-SN,,0.00,WeatherDisplay:10.37,2013-03-07 13:58:00,
2013-03-07 08:03:00,7.2,3.1,30.33,NW,307,0.0,0.0,83,0.00,BKN,,0.00,WeatherDisplay:10.37,2013-03-07 14:03:00,
2013-03-07 08:09:00,7.2,3.1,30.33,NW,307,2.3,2.3,83,0.00,BKN,,0.00,WeatherDisplay:10.37,2013-03-07 14:09:00,
2013-03-07 08:14:00,7.0,2.9,30.33,NW,307,3.5,3.5,83,0.00,BKN,,0.00,WeatherDisplay:10.37,2013-03-07 14:14:00,
2013-03-07 08:19:00,6.9,2.8,30.33,NW,307,3.5,3.5,83,0.00,OVC,,0.00,WeatherDisplay:10.37,2013-03-07 14:19:00,
2013-03-07 08:24:00,7.0,2.9,30.33,NW,307,2.3,2.3,83,0.00,BKN,,0.00,WeatherDisplay:10.37,2013-03-07 14:24:00,
2013-03-07 08:29:00,7.4,3.3,30.33,NW,307,0.0,0.0,83,0.00,BKN,,0.00,WeatherDisplay:10.37,2013-03-07 14:29:00,
2013-03-07 08:34:00,7.9,4.1,30.34,NW,307,3.5,3.5,84,0.00,BKN,,0.00,WeatherDisplay:10.37,2013-03-07 14:34:00,
2013-03-07 08:39:00,8.6,4.8,30.34,NW,307,2.3,2.3,84,0.00,BKN,,0.00,WeatherDisplay:10.37,2013-03-07 14:39:00,
2013-03-07 08:44:00,9.3,5.7,30.34,SSE,167,3.5,3.5,85,0.00,BKN,,0.00,WeatherDisplay:10.37,2013-03-07 14:44:00,
2013-03-07 08:49:00,9.5,5.6,30.34,SSE,167,3.5,3.5,84,0.00,-SN,,0.00,WeatherDisplay:10.37,2013-03-07 14:49:00,
2013-03-07 08:54:00,9.2,5.1,30.34,SSE,167,3.5,3.5,83,0.00,-SN,,0.00,WeatherDisplay:10.37,2013-03-07 14:54:00,
2013-03-07 08:59:00,9.0,5.1,30.34,SSE,167,3.5,3.5,84,0.00,-SN,,0.00,WeatherDisplay:10.37,2013-03-07 14:59:00,
2013-03-07 09:04:00,9.5,5.6,30.34,SSE,167,0.0,0.0,84,0.00,-SN,,0.00,WeatherDisplay:10.37,2013-03-07 15:04:00,
2013-03-07 09:09:00,10.4,6.8,30.34,SSE,167,2.0,2.0,85,0.00,-SN,,0.00,WeatherDisplay:10.37,2013-03-07 15:09:00,
2013-03-07 09:14:00,11.2,7.6,30.34,SSE,167,1.1,1.1,85,0.00,OVC,,0.00,WeatherDisplay:10.37,2013-03-07 15:14:00,
2013-03-07 09:19:00,11.6,8.0,30.34,SSE,167,1.1,1.1,85,0.00,-SN,,0.00,WeatherDisplay:10.37,2013-03-07 15:19:00,
2013-03-07 09:24:00,12.3,8.7,30.34,SSE,167,0.0,0.0,85,0.00,OVC,,0.00,WeatherDisplay:10.37,2013-03-07 15:24:00,
2013-03-07 09:29:00,13.1,9.4,30.34,SSE,167,2.3,2.3,85,0.00,-SN,,0.00,WeatherDisplay:10.37,2013-03-07 15:29:00,
2013-03-07 09:34:00,14.0,10.6,30.34,SSE,167,0.0,0.0,86,0.00,-SN,,0.00,WeatherDisplay:10.37,2013-03-07 15:34:00,
2013-03-07 09:39:00,15.1,11.7,30.34,SSE,167,1.1,1.1,86,0.00,-SN,,0.00,WeatherDisplay:10.37,2013-03-07 15:39:00,
2013-03-07 09:44:00,16.1,12.7,30.34,SSE,167,2.3,2.3,86,0.00,,,0.00,WeatherDisplay:10.37,2013-03-07 15:44:00,
2013-03-07 09:49:00,16.7,13.0,30.35,SSE,167,2.3,2.3,85,0.00,,,0.00,WeatherDisplay:10.37,2013-03-07 15:49:00,
2013-03-07 09:54:00,17.5,13.5,30.35,SSE,167,2.3,2.3,84,0.00,,,0.00,WeatherDisplay:10.37,2013-03-07 15:54:00,
2013-03-07 09:59:00,18.4,14.1,30.34,SSE,167,3.5,3.5,83,0.00,-SN,,0.00,WeatherDisplay:10.37,2013-03-07 15:59:00,
2013-03-07 10:04:00,19.5,14.6,30.34,East,90,4.0,4.0,81,0.00,CLR,,0.00,WeatherDisplay:10.37,2013-03-07 16:04:00,
2013-03-07 10:09:00,19.7,13.7,30.34,SE,132,3.5,3.5,77,0.00,CLR,,0.00,WeatherDisplay:10.37,2013-03-07 16:09:00,
2013-03-07 10:14:00,20.2,13.8,30.35,SE,132,3.5,3.5,76,0.00,CLR,,0.00,WeatherDisplay:10.37,2013-03-07 16:14:00,
2013-03-07 10:19:00,20.8,13.8,30.35,ESE,117,3.5,3.5,74,0.00,CLR,,0.00,WeatherDisplay:10.37,2013-03-07 16:19:00,
2013-03-07 10:24:00,21.1,13.5,30.35,ESE,117,3.5,3.5,72,0.00,CLR,,0.00,WeatherDisplay:10.37,2013-03-07 16:24:00,
2013-03-07 10:29:00,21.6,13.6,30.35,SSE,150,3.5,3.5,71,0.00,CLR,,0.00,WeatherDisplay:10.37,2013-03-07 16:29:00,
2013-03-07 10:34:00,22.2,13.9,30.35,SE,143,3.5,3.5,70,0.00,CLR,,0.00,WeatherDisplay:10.37,2013-03-07 16:34:00,
2013-03-07 10:39:00,22.5,13.5,30.35,SE,144,3.5,3.5,68,0.00,CLR,,0.00,WeatherDisplay:10.37,2013-03-07 16:39:00,
2013-03-07 10:44:00,22.7,13.4,30.35,ESE,120,3.5,3.5,67,0.00,CLR,,0.00,WeatherDisplay:10.37,2013-03-07 16:44:00,
2013-03-07 10:49:00,23.5,14.1,30.35,SE,139,3.5,3.5,67,0.00,CLR,,0.00,WeatherDisplay:10.37,2013-03-07 16:49:00,
2013-03-07 10:54:00,24.2,14.1,30.35,SE,139,3.5,3.5,65,0.00,CLR,,0.00,WeatherDisplay:10.37,2013-03-07 16:54:00,
2013-03-07 10:59:00,24.8,14.3,30.35,SE,138,2.3,2.3,64,0.00,CLR,,0.00,WeatherDisplay:10.37,2013-03-07 16:59:00,
2013-03-07 11:04:00,25.0,14.2,30.35,SE,138,3.5,3.5,63,0.00,CLR,,0.00,WeatherDisplay:10.37,2013-03-07 17:04:00,
2013-03-07 11:09:00,25.3,14.5,30.35,SE,138,3.5,3.5,63,0.00,CLR,,0.00,WeatherDisplay:10.37,2013-03-07 17:09:00,
2013-03-07 11:14:00,25.3,14.1,30.35,SE,125,3.5,3.5,62,0.00,CLR,,0.00,WeatherDisplay:10.37,2013-03-07 17:14:00,
2013-03-07 11:19:00,25.1,13.9,30.35,SE,127,3.5,3.5,62,0.00,CLR,,0.00,WeatherDisplay:10.37,2013-03-07 17:19:00,
2013-03-07 11:24:00,25.3,14.1,30.35,SE,134,3.5,3.5,62,0.00,CLR,,0.00,WeatherDisplay:10.37,2013-03-07 17:24:00,
2013-03-07 11:29:00,25.3,13.7,30.35,SSE,155,5.8,5.8,61,0.01,RA,,0.01,WeatherDisplay:10.37,2013-03-07 17:29:00,
2013-03-07 11:34:00,25.1,13.5,30.35,ENE,65,4.6,4.6,61,0.01,RA,,0.01,WeatherDisplay:10.37,2013-03-07 17:34:00,
2013-03-07 11:39:00,25.3,14.1,30.35,SE,138,5.8,5.8,62,0.01,CLR,,0.01,WeatherDisplay:10.37,2013-03-07 17:39:00,
2013-03-07 11:44:00,25.6,14.4,30.34,SE,139,5.8,5.8,62,0.01,CLR,,0.01,WeatherDisplay:10.37,2013-03-07 17:44:00,
2013-03-07 11:49:00,26.3,15.0,30.34,ESE,104,5.0,5.0,62,0.01,CLR,,0.01,WeatherDisplay:10.37,2013-03-07 17:49:00,
2013-03-07 11:54:00,26.1,14.1,30.34,SE,124,5.8,5.8,60,0.01,CLR,,0.01,WeatherDisplay:10.37,2013-03-07 17:54:00,
2013-03-07 11:59:00,26.0,14.8,30.34,SE,140,6.0,6.0,62,0.01,CLR,,0.01,WeatherDisplay:10.37,2013-03-07 17:59:00,
2013-03-07 12:04:00,26.0,14.4,30.34,SE,127,4.6,4.6,61,0.01,CLR,,0.01,WeatherDisplay:10.37,2013-03-07 18:04:00,
2013-03-07 12:09:00,25.8,14.2,30.34,East,97,4.6,4.6,61,0.01,CLR,,0.01,WeatherDisplay:10.37,2013-03-07 18:09:00,
2013-03-07 12:14:00,26.0,15.1,30.34,East,88,4.0,4.0,63,0.01,CLR,,0.01,WeatherDisplay:10.37,2013-03-07 18:14:00,
2013-03-07 12:19:00,26.6,15.3,30.34,SSE,159,5.8,5.8,62,0.01,CLR,,0.01,WeatherDisplay:10.37,2013-03-07 18:19:00,
2013-03-07 12:24:00,25.8,14.6,30.34,SSE,159,5.8,5.8,62,0.01,CLR,,0.01,WeatherDisplay:10.37,2013-03-07 18:24:00,
2013-03-07 12:29:00,26.0,15.1,30.34,South,174,3.5,3.5,63,0.00,CLR,,0.01,WeatherDisplay:10.37,2013-03-07 18:29:00,
2013-03-07 12:34:00,26.6,15.7,30.34,SSE,153,6.9,6.9,63,0.00,CLR,,0.01,WeatherDisplay:10.37,2013-03-07 18:34:00,
2013-03-07 12:39:00,26.7,15.8,30.34,SSE,157,3.5,3.5,63,0.00,CLR,,0.01,WeatherDisplay:10.37,2013-03-07 18:39:00,
2013-03-07 12:44:00,27.5,16.2,30.34,South,185,5.8,5.8,62,0.00,CLR,,0.01,WeatherDisplay:10.37,2013-03-07 18:44:00,
2013-03-07 12:50:00,27.9,15.8,30.34,SSE,163,4.6,4.6,60,0.00,CLR,,0.01,WeatherDisplay:10.37,2013-03-07 18:50:00,
2013-03-07 12:55:00,28.4,16.3,30.34,SSE,161,6.9,6.9,60,0.00,CLR,,0.01,WeatherDisplay:10.37,2013-03-07 18:55:00,
2013-03-07 13:00:00,28.4,16.3,30.33,SSE,161,5.8,5.8,60,0.00,CLR,,0.01,WeatherDisplay:10.37,2013-03-07 19:00:00,
2013-03-07 13:05:00,28.1,16.0,30.33,ESE,117,4.6,4.6,60,0.00,CLR,,0.01,WeatherDisplay:10.37,2013-03-07 19:05:00,
2013-03-07 13:10:00,28.7,16.9,30.33,SSE,150,4.6,4.6,61,0.00,CLR,,0.01,WeatherDisplay:10.37,2013-03-07 19:10:00,
2013-03-07 13:15:00,29.4,17.2,30.33,ESE,109,6.9,6.9,60,0.01,RA,,0.02,WeatherDisplay:10.37,2013-03-07 19:15:00,
2013-03-07 13:20:00,29.3,16.7,30.32,SE,146,6.9,6.9,59,0.01,RA,,0.02,WeatherDisplay:10.37,2013-03-07 19:20:00,
2013-03-07 13:25:00,28.8,15.9,30.32,SE,146,6.9,6.9,58,0.01,CLR,,0.02,WeatherDisplay:10.37,2013-03-07 19:25:00,
2013-03-07 13:30:00,28.7,16.2,30.32,SSE,155,6.9,6.9,59,0.01,CLR,,0.02,WeatherDisplay:10.37,2013-03-07 19:30:00,
2013-03-07 13:35:00,28.7,16.9,30.32,South,169,6.9,6.9,61,0.02,RA,,0.03,WeatherDisplay:10.37,2013-03-07 19:35:00,
2013-03-07 13:40:00,29.4,18.0,30.32,SSE,155,4.6,4.6,62,0.02,RA,,0.03,WeatherDisplay:10.37,2013-03-07 19:40:00,
2013-03-07 13:45:00,29.0,16.8,30.32,South,182,11.5,11.5,60,0.02,CLR,,0.03,WeatherDisplay:10.37,2013-03-07 19:45:00,
2013-03-07 13:50:00,28.1,16.4,30.32,SSE,155,13.8,13.8,61,0.02,CLR,,0.03,WeatherDisplay:10.37,2013-03-07 19:50:00,
2013-03-07 13:55:00,27.6,16.3,30.32,South,171,13.8,13.8,62,0.02,CLR,,0.03,WeatherDisplay:10.37,2013-03-07 19:55:00,
2013-03-07 14:01:00,27.8,16.8,30.31,SSE,161,13.8,13.8,63,0.02,CLR,,0.03,WeatherDisplay:10.37,2013-03-07 20:01:00,
2013-03-07 14:06:00,27.9,16.9,30.31,South,173,11.5,11.5,63,0.02,CLR,,0.03,WeatherDisplay:10.37,2013-03-07 20:06:00,
2013-03-07 14:11:00,27.9,16.6,30.31,SSE,168,15.0,15.0,62,0.02,CLR,,0.03,WeatherDisplay:10.37,2013-03-07 20:11:00,
2013-03-07 14:16:00,27.6,17.0,30.30,SSE,158,11.5,11.5,64,0.01,CLR,,0.03,WeatherDisplay:10.37,2013-03-07 20:16:00,
2013-03-07 14:21:00,27.9,16.9,30.30,South,173,11.5,11.5,63,0.01,CLR,,0.03,WeatherDisplay:10.37,2013-03-07 20:21:00,
2013-03-07 14:26:00,28.2,16.8,30.30,SSE,158,12.7,12.7,62,0.01,CLR,,0.03,WeatherDisplay:10.37,2013-03-07 20:26:00,
2013-03-07 14:31:00,28.7,16.6,30.30,SSE,167,11.5,11.5,60,0.01,CLR,,0.03,WeatherDisplay:10.37,2013-03-07 20:31:00,
2013-03-07 14:36:00,28.8,17.0,30.30,SSE,152,10.4,10.4,61,0.00,CLR,,0.03,WeatherDisplay:10.37,2013-03-07 20:36:00,
2013-03-07 14:41:00,29.1,17.7,30.30,SE,139,11.5,11.5,62,0.00,CLR,,0.03,WeatherDisplay:10.37,2013-03-07 20:41:00,
2013-03-07 14:46:00,29.3,17.9,30.30,South,171,8.0,8.0,62,0.00,CLR,,0.03,WeatherDisplay:10.37,2013-03-07 20:46:00,
2013-03-07 14:51:00,29.5,17.7,30.30,SSE,154,10.4,10.4,61,0.00,CLR,,0.03,WeatherDisplay:10.37,2013-03-07 20:51:00,
2013-03-07 14:56:00,29.4,17.6,30.30,SSE,165,6.9,6.9,61,0.00,CLR,,0.03,WeatherDisplay:10.37,2013-03-07 20:56:00,
2013-03-07 15:01:00,29.4,18.0,30.30,SSE,152,4.6,4.6,62,0.00,SCT,,0.03,WeatherDisplay:10.37,2013-03-07 21:01:00,
2013-03-07 15:06:00,30.0,18.2,30.30,SSE,159,5.8,5.8,61,0.00,SCT,,0.03,WeatherDisplay:10.37,2013-03-07 21:06:00,
2013-03-07 15:11:00,30.3,17.7,30.30,SSE,155,7.0,7.0,59,0.00,SCT,,0.03,WeatherDisplay:10.37,2013-03-07 21:11:00,
2013-03-07 15:16:00,30.4,18.2,30.29,SE,144,4.6,4.6,60,0.00,SCT,,0.03,WeatherDisplay:10.37,2013-03-07 21:16:00,
2013-03-07 15:21:00,30.4,17.8,30.29,SSE,151,9.2,9.2,59,0.00,SCT,,0.03,WeatherDisplay:10.37,2013-03-07 21:21:00,
2013-03-07 15:26:00,30.4,18.2,30.29,SSE,161,5.8,5.8,60,0.00,SCT,,0.03,WeatherDisplay:10.37,2013-03-07 21:26:00,
2013-03-07 15:31:00,30.6,17.6,30.29,SE,136,10.4,10.4,58,0.00,CLR,,0.03,WeatherDisplay:10.37,2013-03-07 21:31:00,
2013-03-07 15:36:00,30.4,17.8,30.29,ESE,114,6.9,6.9,59,0.00,CLR,,0.03,WeatherDisplay:10.37,2013-03-07 21:36:00,
2013-03-07 15:41:00,30.6,18.0,30.29,SSE,162,5.8,5.8,59,0.01,RA,,0.04,WeatherDisplay:10.37,2013-03-07 21:41:00,
2013-03-07 15:46:00,30.7,17.7,30.29,SE,141,9.2,9.2,58,0.01,RA,,0.04,WeatherDisplay:10.37,2013-03-07 21:46:00,
2013-03-07 15:51:00,30.4,17.4,30.29,SSE,150,6.9,6.9,58,0.01,CLR,,0.04,WeatherDisplay:10.37,2013-03-07 21:51:00,
2013-03-07 15:57:00,30.4,17.4,30.29,ESE,112,6.0,6.0,58,0.01,CLR,,0.04,WeatherDisplay:10.37,2013-03-07 21:57:00,
2013-03-07 16:02:00,30.1,17.1,30.29,ESE,120,8.1,8.1,58,0.01,CLR,,0.04,WeatherDisplay:10.37,2013-03-07 22:02:00,
2013-03-07 16:07:00,30.0,18.2,30.29,SE,136,3.5,3.5,61,0.01,CLR,,0.04,WeatherDisplay:10.37,2013-03-07 22:07:00,
2013-03-07 16:12:00,30.1,17.5,30.29,SSE,163,4.6,4.6,59,0.01,CLR,,0.04,WeatherDisplay:10.37,2013-03-07 22:12:00,
2013-03-07 16:17:00,30.1,17.5,30.29,SSE,148,6.9,6.9,59,0.01,CLR,,0.04,WeatherDisplay:10.37,2013-03-07 22:17:00,
2013-03-07 16:22:00,29.8,17.2,30.29,SSE,147,9.2,9.2,59,0.01,CLR,,0.04,WeatherDisplay:10.37,2013-03-07 22:22:00,
2013-03-07 16:27:00,29.5,16.9,30.29,SSE,163,8.1,8.1,59,0.01,CLR,,0.04,WeatherDisplay:10.37,2013-03-07 22:27:00,
2013-03-07 16:32:00,29.5,17.3,30.28,SSE,147,5.0,5.0,60,0.01,CLR,,0.04,WeatherDisplay:10.37,2013-03-07 22:32:00,
2013-03-07 16:37:00,29.5,16.9,30.28,SSE,159,6.0,6.0,59,0.01,CLR,,0.04,WeatherDisplay:10.37,2013-03-07 22:37:00,
2013-03-07 16:42:00,29.5,17.3,30.28,SSE,150,5.8,5.8,60,0.00,CLR,,0.04,WeatherDisplay:10.37,2013-03-07 22:42:00,
2013-03-07 16:47:00,29.4,17.6,30.29,East,96,4.6,4.6,61,0.00,CLR,,0.04,WeatherDisplay:10.37,2013-03-07 22:47:00,
2013-03-07 16:52:00,29.1,17.3,30.29,ENE,73,5.8,5.8,61,0.00,CLR,,0.04,WeatherDisplay:10.37,2013-03-07 22:52:00,
2013-03-07 16:57:00,29.0,17.6,30.29,SE,143,4.6,4.6,62,0.00,CLR,,0.04,WeatherDisplay:10.37,2013-03-07 22:57:00,
2013-03-07 17:02:00,28.7,17.3,30.28,East,81,4.6,4.6,62,0.00,CLR,,0.04,WeatherDisplay:10.37,2013-03-07 23:02:00,
2013-03-07 17:07:00,28.5,17.1,30.28,ESE,120,9.2,9.2,62,0.00,CLR,,0.04,WeatherDisplay:10.37,2013-03-07 23:07:00,
2013-03-07 17:12:00,28.4,17.4,30.28,SE,134,5.8,5.8,63,0.00,CLR,,0.04,WeatherDisplay:10.37,2013-03-07 23:12:00,
2013-03-07 17:17:00,28.2,17.2,30.28,East,96,6.9,6.9,63,0.00,CLR,,0.04,WeatherDisplay:10.37,2013-03-07 23:17:00,
2013-03-07 17:22:00,28.1,17.1,30.28,East,101,6.9,6.9,63,0.01,RA,,0.05,WeatherDisplay:10.37,2013-03-07 23:22:00,
2013-03-07 17:27:00,27.8,17.2,30.28,ESE,112,6.9,6.9,64,0.01,RA,,0.05,WeatherDisplay:10.37,2013-03-07 23:27:00,
2013-03-07 17:32:00,27.6,17.0,30.27,SE,126,5.8,5.8,64,0.01,CLR,,0.05,WeatherDisplay:10.37,2013-03-07 23:32:00,
2013-03-07 17:37:00,27.5,17.3,30.27,East,99,3.5,3.5,65,0.01,CLR,,0.05,WeatherDisplay:10.37,2013-03-07 23:37:00,
2013-03-07 17:42:00,27.3,17.1,30.27,ESE,117,3.5,3.5,65,0.01,CLR,,0.05,WeatherDisplay:10.37,2013-03-07 23:42:00,
2013-03-07 17:47:00,27.2,17.0,30.27,ESE,104,4.6,4.6,65,0.01,CLR,,0.05,WeatherDisplay:10.37,2013-03-07 23:47:00,
2013-03-07 17:52:00,27.0,17.1,30.27,SE,135,5.8,5.8,66,0.01,CLR,,0.05,WeatherDisplay:10.37,2013-03-07 23:52:00,
2013-03-07 17:57:00,26.9,17.0,30.27,SE,130,3.5,3.5,66,0.01,CLR,,0.05,WeatherDisplay:10.37,2013-03-07 23:57:00,
2013-03-07 18:02:00,26.6,16.8,30.28,SE,129,4.0,4.0,66,0.01,CLR,,0.05,WeatherDisplay:10.37,2013-03-08 00:02:00,
2013-03-07 18:07:00,26.6,16.8,30.28,East,101,5.8,5.8,66,0.01,CLR,,0.05,WeatherDisplay:10.37,2013-03-08 00:07:00,
2013-03-07 18:12:00,26.4,16.6,30.28,ESE,114,4.6,4.6,66,0.01,CLR,,0.05,WeatherDisplay:10.37,2013-03-08 00:12:00,
2013-03-07 18:17:00,26.4,16.6,30.27,ESE,112,6.0,6.0,66,0.01,CLR,,0.05,WeatherDisplay:10.37,2013-03-08 00:17:00,
2013-03-07 18:22:00,26.3,16.5,30.27,SSE,163,6.0,6.0,66,0.00,CLR,,0.05,WeatherDisplay:10.37,2013-03-08 00:22:00,
2013-03-07 18:27:00,26.1,16.3,30.27,East,87,3.5,3.5,66,0.00,CLR,,0.05,WeatherDisplay:10.37,2013-03-08 00:27:00,
2013-03-07 18:32:00,26.1,16.3,30.27,ESE,109,6.9,6.9,66,0.00,CLR,,0.05,WeatherDisplay:10.37,2013-03-08 00:32:00,
2013-03-07 18:37:00,26.1,16.3,30.27,SSE,160,5.0,5.0,66,0.00,CLR,,0.05,WeatherDisplay:10.37,2013-03-08 00:37:00,
2013-03-07 18:42:00,26.1,16.3,30.27,SSE,150,4.6,4.6,66,0.00,CLR,,0.05,WeatherDisplay:10.37,2013-03-08 00:42:00,
2013-03-07 18:47:00,26.0,16.2,30.27,SE,140,4.6,4.6,66,0.00,CLR,,0.05,WeatherDisplay:10.37,2013-03-08 00:47:00,
2013-03-07 18:52:00,26.0,16.2,30.27,SSE,157,6.9,6.9,66,0.00,CLR,,0.05,WeatherDisplay:10.37,2013-03-08 00:52:00,
2013-03-07 18:57:00,26.0,16.2,30.27,SE,136,5.8,5.8,66,0.00,CLR,,0.05,WeatherDisplay:10.37,2013-03-08 00:57:00,
2013-03-07 19:02:00,25.8,16.0,30.27,SSE,163,6.9,6.9,66,0.00,CLR,,0.05,WeatherDisplay:10.37,2013-03-08 01:02:00,
2013-03-07 19:07:00,25.8,16.0,30.27,SSE,164,10.4,10.4,66,0.00,CLR,,0.05,WeatherDisplay:10.37,2013-03-08 01:07:00,
2013-03-07 19:12:00,25.8,16.0,30.27,SSE,152,6.0,6.0,66,0.00,CLR,,0.05,WeatherDisplay:10.37,2013-03-08 01:12:00,
2013-03-07 19:17:00,25.7,15.9,30.27,SSE,155,5.8,5.8,66,0.00,CLR,,0.05,WeatherDisplay:10.37,2013-03-08 01:17:00,
2013-03-07 19:23:00,25.6,15.8,30.27,SSE,155,5.0,5.0,66,0.00,CLR,,0.05,WeatherDisplay:10.37,2013-03-08 01:23:00,
2013-03-07 19:28:00,25.6,15.5,30.27,SSE,156,5.8,5.8,65,0.00,CLR,,0.05,WeatherDisplay:10.37,2013-03-08 01:28:00,
2013-03-07 19:33:00,25.4,15.6,30.27,SSE,152,5.0,6.0,66,0.00,CLR,,0.05,WeatherDisplay:10.37,2013-03-08 01:33:00,
2013-03-07 19:38:00,25.3,15.9,30.27,SE,143,5.8,5.8,67,0.00,CLR,,0.05,WeatherDisplay:10.37,2013-03-08 01:38:00,
2013-03-07 19:43:00,25.1,15.7,30.27,SE,136,5.8,5.8,67,0.00,CLR,,0.05,WeatherDisplay:10.37,2013-03-08 01:43:00,
2013-03-07 19:48:00,25.1,15.7,30.26,SSE,162,4.6,4.6,67,0.00,CLR,,0.05,WeatherDisplay:10.37,2013-03-08 01:48:00,
2013-03-07 19:53:00,25.0,15.6,30.26,SE,139,5.0,5.0,67,0.00,CLR,,0.05,WeatherDisplay:10.37,2013-03-08 01:53:00,
2013-03-07 19:58:00,25.0,15.6,30.26,SSE,150,5.8,5.8,67,0.00,CLR,,0.05,WeatherDisplay:10.37,2013-03-08 01:58:00,
2013-03-07 20:03:00,25.0,15.6,30.26,SE,144,5.8,5.8,67,0.00,CLR,,0.05,WeatherDisplay:10.37,2013-03-08 02:03:00,
2013-03-07 20:08:00,24.9,15.5,30.26,SE,146,3.0,6.0,67,0.00,CLR,,0.05,WeatherDisplay:10.37,2013-03-08 02:08:00,
2013-03-07 20:13:00,24.7,15.3,30.26,SSE,148,3.0,6.0,67,0.00,CLR,,0.05,WeatherDisplay:10.37,2013-03-08 02:13:00,
2013-03-07 20:18:00,24.7,15.3,30.26,SSE,158,6.9,6.9,67,0.00,CLR,,0.05,WeatherDisplay:10.37,2013-03-08 02:18:00,
2013-03-07 20:23:00,24.5,15.1,30.26,SSE,155,2.0,6.0,67,0.00,CLR,,0.05,WeatherDisplay:10.37,2013-03-08 02:23:00,
2013-03-07 20:28:00,24.5,15.4,30.26,SSE,154,3.0,7.0,68,0.00,CLR,,0.05,WeatherDisplay:10.37,2013-03-08 02:28:00,
2013-03-07 20:33:00,24.4,15.3,30.26,SSE,153,3.5,3.5,68,0.00,CLR,,0.05,WeatherDisplay:10.37,2013-03-08 02:33:00,
2013-03-07 20:39:00,24.2,15.2,30.26,SSE,154,6.0,6.0,68,0.00,CLR,,0.05,WeatherDisplay:10.37,2013-03-08 02:39:00,
2013-03-07 20:44:00,24.1,15.1,30.26,SSE,154,3.5,3.5,68,0.00,CLR,,0.05,WeatherDisplay:10.37,2013-03-08 02:44:00,
2013-03-07 20:49:00,23.9,14.9,30.25,SSE,154,4.6,4.6,68,0.00,CLR,,0.05,WeatherDisplay:10.37,2013-03-08 02:49:00,
2013-03-07 20:54:00,23.9,14.9,30.25,SSE,154,4.0,4.0,68,0.00,CLR,,0.05,WeatherDisplay:10.37,2013-03-08 02:54:00,
2013-03-07 20:59:00,23.8,14.8,30.25,SSE,154,4.6,4.6,68,0.00,CLR,,0.05,WeatherDisplay:10.37,2013-03-08 02:59:00,
2013-03-07 21:04:00,23.6,14.6,30.26,SE,144,3.5,3.5,68,0.00,CLR,,0.05,WeatherDisplay:10.37,2013-03-08 03:04:00,
2013-03-07 21:09:00,23.3,14.6,30.26,SE,144,3.5,3.5,69,0.00,CLR,,0.05,WeatherDisplay:10.37,2013-03-08 03:09:00,
2013-03-07 21:14:00,23.2,14.5,30.26,SE,144,4.6,4.6,69,0.00,CLR,,0.05,WeatherDisplay:10.37,2013-03-08 03:14:00,
2013-03-07 21:19:00,23.0,14.3,30.26,SE,144,3.5,3.5,69,0.00,CLR,,0.05,WeatherDisplay:10.37,2013-03-08 03:19:00,
2013-03-07 21:24:00,23.2,14.9,30.26,SE,144,3.5,3.5,70,0.00,CLR,,0.05,WeatherDisplay:10.37,2013-03-08 03:24:00,
2013-03-07 21:29:00,23.0,14.7,30.26,SE,144,3.5,3.5,70,0.00,CLR,,0.05,WeatherDisplay:10.37,2013-03-08 03:29:00,
2013-03-07 21:34:00,22.7,14.4,30.26,SE,144,3.5,3.5,70,0.00,CLR,,0.05,WeatherDisplay:10.37,2013-03-08 03:34:00,
2013-03-07 21:39:00,22.5,14.2,30.26,SE,144,3.5,3.5,70,0.00,CLR,,0.05,WeatherDisplay:10.37,2013-03-08 03:39:00,
2013-03-07 21:44:00,22.2,13.9,30.26,SE,144,3.5,3.5,70,0.00,CLR,,0.05,WeatherDisplay:10.37,2013-03-08 03:44:00,
2013-03-07 21:49:00,21.9,13.6,30.26,SE,144,3.5,3.5,70,0.00,CLR,,0.05,WeatherDisplay:10.37,2013-03-08 03:49:00,
2013-03-07 21:54:00,21.8,13.8,30.26,SE,144,3.5,3.5,71,0.00,CLR,,0.05,WeatherDisplay:10.37,2013-03-08 03:54:00,
2013-03-07 21:59:00,21.6,13.6,30.26,SE,144,3.5,3.5,71,0.00,CLR,,0.05,WeatherDisplay:10.37,2013-03-08 03:59:00,
2013-03-07 22:04:00,21.4,13.5,30.26,SE,144,3.5,3.5,71,0.00,CLR,,0.05,WeatherDisplay:10.37,2013-03-08 04:04:00,
2013-03-07 22:09:00,21.3,13.4,30.26,SE,144,3.5,3.5,71,0.00,CLR,,0.05,WeatherDisplay:10.37,2013-03-08 04:09:00,
2013-03-07 22:15:00,21.0,13.4,30.27,SE,144,3.5,3.5,72,0.00,CLR,,0.05,WeatherDisplay:10.37,2013-03-08 04:15:00,
2013-03-07 22:20:00,20.8,13.2,30.27,SE,144,3.5,3.5,72,0.00,CLR,,0.05,WeatherDisplay:10.37,2013-03-08 04:20:00,
2013-03-07 22:25:00,20.3,13.3,30.27,SE,144,3.5,3.5,74,0.00,CLR,,0.05,WeatherDisplay:10.37,2013-03-08 04:25:00,
2013-03-07 22:30:00,20.0,12.7,30.27,SE,144,0.0,0.0,73,0.00,CLR,,0.05,WeatherDisplay:10.37,2013-03-08 04:30:00,
2013-03-07 22:35:00,19.9,12.6,30.27,SE,144,1.1,0.0,73,0.00,CLR,,0.05,WeatherDisplay:10.37,2013-03-08 04:35:00,
2013-03-07 22:40:00,19.7,12.8,30.27,SE,144,3.5,3.5,74,0.00,CLR,,0.05,WeatherDisplay:10.37,2013-03-08 04:40:00,
2013-03-07 22:45:00,19.9,13.3,30.28,SE,144,5.8,5.8,75,0.00,CLR,,0.05,WeatherDisplay:10.37,2013-03-08 04:45:00,
2013-03-07 22:50:00,20.2,13.5,30.28,SE,144,3.5,3.5,75,0.00,CLR,,0.05,WeatherDisplay:10.37,2013-03-08 04:50:00,
2013-03-07 22:55:00,19.9,12.9,30.28,SE,144,2.0,2.0,74,0.00,CLR,,0.05,WeatherDisplay:10.37,2013-03-08 04:55:00,
2013-03-07 23:00:00,19.7,13.1,30.28,SE,144,3.5,3.5,75,0.00,CLR,,0.05,WeatherDisplay:10.37,2013-03-08 05:00:00,
2013-03-07 23:01:00,19.7,13.1,30.28,SE,144,2.3,2.3,75,0.00,CLR,,0.05,WeatherDisplay:10.37,2013-03-08 05:01:00,
2013-03-07 23:06:00,19.9,13.3,30.28,SE,144,3.5,3.5,75,0.00,CLR,,0.05,WeatherDisplay:10.37,2013-03-08 05:06:00,
2013-03-07 23:11:00,20.0,13.3,30.28,SSE,164,5.0,5.0,75,0.00,CLR,,0.05,WeatherDisplay:10.37,2013-03-08 05:11:00,
2013-03-07 23:16:00,19.7,13.1,30.28,SSE,159,4.6,4.6,75,0.00,CLR,,0.05,WeatherDisplay:10.37,2013-03-08 05:16:00,
2013-03-07 23:21:00,19.9,13.6,30.28,SSE,159,5.8,5.8,76,0.00,CLR,,0.05,WeatherDisplay:10.37,2013-03-08 05:21:00,
2013-03-07 23:26:00,19.9,13.6,30.28,SSE,159,3.5,3.5,76,0.00,CLR,,0.05,WeatherDisplay:10.37,2013-03-08 05:26:00,
2013-03-07 23:31:00,19.9,13.6,30.28,SSE,168,8.1,8.1,76,0.00,CLR,,0.05,WeatherDisplay:10.37,2013-03-08 05:31:00,
2013-03-07 23:36:00,20.0,13.6,30.28,SSE,155,6.9,6.9,76,0.00,CLR,,0.05,WeatherDisplay:10.37,2013-03-08 05:36:00,
2013-03-07 23:41:00,19.9,13.6,30.28,South,169,5.8,5.8,76,0.00,CLR,,0.05,WeatherDisplay:10.37,2013-03-08 05:41:00,
2013-03-07 23:46:00,19.9,13.6,30.29,South,169,4.6,4.6,76,0.00,CLR,,0.05,WeatherDisplay:10.37,2013-03-08 05:46:00,
2013-03-07 23:51:00,19.9,13.9,30.29,South,169,4.6,4.6,77,0.00,CLR,,0.05,WeatherDisplay:10.37,2013-03-08 05:51:00,
2013-03-07 23:56:00,19.9,13.9,30.29,South,169,3.5,3.5,77,0.00,CLR,,0.05,WeatherDisplay:10.37,2013-03-08 05:56:00,